IBE0604 LEMD-LEZL

Flight info

Callsign IBE0604
Flight time N/A
Altitude 29000
Route VTB N10 HIJ
Aircraft B739/M-SDE2E3FGHIRWXY/LB1

Departure

Time 2026-05-01 07:50
Airport Adolfo Suárez Madrid–Barajas Airport (LEMD)

Arrival

Time N/A
Airport Seville Airport (LEZL)
Time Latitude Longitude Altitude Speed Heading
2026-05-01 07:45 40.49356 -3.56870 2017 ft 0 kts 90°
2026-05-01 07:45 40.49356 -3.56879 2017 ft 2 kts 90°
2026-05-01 07:46 40.49356 -3.56902 2017 ft 3 kts 90°
2026-05-01 07:46 40.49356 -3.56929 2017 ft 3 kts 90°
2026-05-01 07:46 40.49356 -3.56983 2017 ft 3 kts 90°
2026-05-01 07:47 40.49356 -3.57010 2017 ft 3 kts 90°
2026-05-01 07:47 40.49356 -3.57036 2017 ft 2 kts 90°
2026-05-01 07:47 40.49353 -3.57022 2017 ft 9 kts 108°
2026-05-01 07:47 40.49327 -3.57007 2017 ft 10 kts 186°
2026-05-01 07:48 40.49226 -3.57229 2017 ft 20 kts 228°
2026-05-01 07:48 40.49212 -3.57391 2016 ft 19 kts 300°
2026-05-01 07:48 40.49273 -3.57460 2017 ft 5 kts 349°
2026-05-01 07:49 40.49278 -3.57461 2017 ft 0 kts 358°
2026-05-01 07:49 40.49418 -3.57465 2017 ft 48 kts 359°
2026-05-01 07:49 40.49937 -3.57468 2017 ft 100 kts
2026-05-01 07:50 40.50778 -3.57453 2017 ft 140 kts 360°
2026-05-01 07:50 40.52752 -3.56732 2771 ft 152 kts 55°
2026-05-01 07:50 40.53241 -3.55554 3426 ft 151 kts 63°
2026-05-01 07:51 40.53751 -3.54218 3485 ft 177 kts 63°
2026-05-01 07:51 40.54297 -3.52793 2216 ft 188 kts 63°